View from above orbital plane
|
View from above satellite
|
Ground track
|
The orbit data is extracted from the following two-line orbital elements,
1 31535U 99025BYA 22171.06605272 .00000851 00000-0 38454-3 0 9994
2 31535 98.1241 102.6486 0095652 321.5947 37.8449 14.22053967786431
Epoch (UTC): | 20 June 2022 01:35:06 |
Eccentricity: | 0.0095652 |
inclination: | 98.1241° |
perigee height: | 749 km |
apogee height: | 887 km |
right ascension of ascending node: | 102.6486° |
argument of perigee: | 321.5947° |
revolutions per day: | 14.22053967 |
mean anomaly at epoch: | 37.8449° |
orbit number at epoch: | 78643 |
The dashed part of the orbit path shows where the satellite is in the earth's shadow,
|
|